When you browse on this site, cookies collect data to enhance your experience and personalize the content and advertising you see.
Visit our Privacy Policy to learn more. By continuing to use the site, you agree to this use of cookies and data.
  • In United Kingdom
  • List of Countries
  • For 7 days
  • Water Temperature
  • Satellite Maps
  • Weather Map
  • Weather Widgets
  • user-avatar
    Login

    Hourly Weather Abancay

    Today, 24 April, Wednesday

    Time Temperature Precipitation Wind Pressure Humidity
    00:00 +10°C° 0 mm 0 mps 543 mmHg 87%
    01:00 +10°C° 0 mm 0 mps 543 mmHg 86%
    02:00 +10°C° 0 mm 0 mps 543 mmHg 86%
    03:00 +10°C° 0 mm 0 mps 543 mmHg 86%
    04:00 +10°C° 0 mm 0 mps 543 mmHg 86%
    05:00 +11°C° 0 mm 0 mps 544 mmHg 83%
    06:00 +11°C° 0 mm 0 mps 545 mmHg 80%
    07:00 +12°C° 0 mm 0 mps 545 mmHg 77%
    08:00 +15°C° 0 mm 1 mps 546 mmHg 67%
    09:00 +18°C° 0 mm 1 mps 547 mmHg 58%
    10:00 +19°C° 0 mm 2 mps 548 mmHg 48%
    11:00 +20°C° 0 mm 2 mps 548 mmHg 46%
    12:00 +21°C° 0 mm 3 mps 548 mmHg 43%
    13:00 +22°C° 0 mm 3 mps 548 mmHg 41%
    14:00 +22°C° 0.1 mm 3 mps 547 mmHg 43%
    15:00 +21°C° 0.1 mm 3 mps 547 mmHg 46%
    16:00 +20°C° 0.1 mm 3 mps 546 mmHg 49%
    17:00 +18°C° 0 mm 3 mps 545 mmHg 61%
    18:00 +15°C° 0 mm 2 mps 544 mmHg 73%
    19:00 +12°C° 0 mm 1 mps 543 mmHg 86%
    20:00 +12°C° 0 mm 1 mps 544 mmHg 87%
    21:00 +11°C° 0 mm 0 mps 544 mmHg 88%
    22:00 +10°C° 0 mm 0 mps 544 mmHg 90%
    23:00 +10°C° 0 mm 0 mps 544 mmHg 89%

    Tomorrow, 25 April, Thursday

    Time Temperature Precipitation Wind Pressure Humidity
    00:00 +10°C° 0 mm 0 mps 544 mmHg 89%
    01:00 +10°C° 0 mm 0 mps 544 mmHg 88%
    02:00 +10°C° 0 mm 0 mps 544 mmHg 88%
    03:00 +10°C° 0 mm 0 mps 544 mmHg 87%
    04:00 +10°C° 0 mm 0 mps 544 mmHg 87%
    05:00 +11°C° 0 mm 0 mps 544 mmHg 83%
    06:00 +12°C° 0 mm 0 mps 545 mmHg 80%
    07:00 +13°C° 0 mm 1 mps 546 mmHg 76%
    08:00 +15°C° 0 mm 1 mps 547 mmHg 67%
    09:00 +17°C° 0 mm 2 mps 548 mmHg 58%
    10:00 +19°C° 0 mm 2 mps 549 mmHg 49%
    11:00 +20°C° 0.1 mm 2 mps 549 mmHg 47%
    12:00 +21°C° 0.1 mm 3 mps 549 mmHg 45%
    13:00 +22°C° 0.1 mm 3 mps 548 mmHg 42%
    14:00 +22°C° 0.1 mm 3 mps 548 mmHg 44%
    15:00 +21°C° 0.1 mm 3 mps 547 mmHg 46%
    16:00 +21°C° 0.1 mm 3 mps 546 mmHg 49%
    17:00 +18°C° 0.1 mm 3 mps 546 mmHg 61%
    18:00 +15°C° 0.1 mm 2 mps 545 mmHg 73%
    19:00 +12°C° 0.1 mm 1 mps 544 mmHg 85%
    20:00 +12°C° 0 mm 1 mps 544 mmHg 87%
    21:00 +12°C° 0 mm 1 mps 545 mmHg 88%
    22:00 +10°C° 0 mm 0 mps 545 mmHg 89%
    23:00 +10°C° 0 mm 0 mps 545 mmHg 89%

    Day after tomorrow, 26 April, Friday

    Time Temperature Precipitation Wind Pressure Humidity
    00:00 +10°C° 0 mm 0 mps 545 mmHg 89%
    01:00 +11°C° 0 mm 0 mps 545 mmHg 88%
    02:00 +11°C° 0 mm 0 mps 545 mmHg 88%
    03:00 +11°C° 0 mm 0 mps 544 mmHg 88%
    04:00 +11°C° 0 mm 0 mps 544 mmHg 87%
    05:00 +11°C° 0 mm 0 mps 545 mmHg 84%
    06:00 +12°C° 0 mm 0 mps 545 mmHg 81%
    07:00 +13°C° 0 mm 0 mps 546 mmHg 78%
    08:00 +16°C° 0 mm 1 mps 547 mmHg 68%
    09:00 +19°C° 0 mm 1 mps 548 mmHg 59%
    10:00 +21°C° 0 mm 1 mps 549 mmHg 49%
    11:00 +21°C° 0.2 mm 2 mps 549 mmHg 47%
    12:00 +22°C° 0.2 mm 3 mps 548 mmHg 44%
    13:00 +24°C° 0.2 mm 3 mps 548 mmHg 41%
    14:00 +22°C° 0.1 mm 3 mps 547 mmHg 43%
    15:00 +22°C° 0.1 mm 3 mps 547 mmHg 45%
    16:00 +21°C° 0.1 mm 3 mps 546 mmHg 47%
    17:00 +18°C° 0.1 mm 2 mps 545 mmHg 59%
    18:00 +15°C° 0.1 mm 2 mps 544 mmHg 72%
    19:00 +13°C° 0.1 mm 1 mps 543 mmHg 85%
    20:00 +12°C° 0.1 mm 1 mps 544 mmHg 86%
    21:00 +12°C° 0.1 mm 1 mps 544 mmHg 87%
    22:00 +11°C° 0.1 mm 0 mps 545 mmHg 89%
    23:00 +11°C° 0 mm 0 mps 544 mmHg 89%

    27 April, Saturday

    Time Temperature Precipitation Wind Pressure Humidity
    00:00 +11°C° 0 mm 0 mps 544 mmHg 88%
    01:00 +10°C° 0 mm 0 mps 544 mmHg 88%
    02:00 +10°C° 0 mm 0 mps 543 mmHg 88%
    03:00 +10°C° 0 mm 0 mps 543 mmHg 87%
    04:00 +10°C° 0 mm 0 mps 543 mmHg 87%
    05:00 +12°C° 0 mm 1 mps 544 mmHg 84%
    06:00 +13°C° 0 mm 1 mps 545 mmHg 80%
    07:00 +14°C° 0 mm 1 mps 545 mmHg 77%
    08:00 +16°C° 0 mm 1 mps 547 mmHg 67%
    09:00 +19°C° 0 mm 1 mps 548 mmHg 57%
    10:00 +21°C° 0 mm 1 mps 549 mmHg 46%
    11:00 +21°C° 0 mm 2 mps 548 mmHg 43%
    12:00 +23°C° 0 mm 2 mps 548 mmHg 40%
    13:00 +24°C° 0 mm 3 mps 548 mmHg 37%
    14:00 +24°C° 0.1 mm 3 mps 547 mmHg 39%
    15:00 +22°C° 0.1 mm 3 mps 546 mmHg 41%
    16:00 +21°C° 0.1 mm 3 mps 545 mmHg 43%
    17:00 +19°C° 0 mm 2 mps 544 mmHg 57%
    18:00 +16°C° 0 mm 2 mps 543 mmHg 70%
    19:00 +13°C° 0 mm 1 mps 543 mmHg 83%
    20:00 +12°C° 0 mm 1 mps 543 mmHg 85%
    21:00 +12°C° 0 mm 1 mps 543 mmHg 86%
    22:00 +11°C° 0 mm 0 mps 544 mmHg 88%
    23:00 +11°C° 0 mm 0 mps 544 mmHg 88%

    28 April, Sunday

    Time Temperature Precipitation Wind Pressure Humidity
    00:00 +11°C° 0 mm 0 mps 543 mmHg 88%
    01:00 +10°C° 0 mm 0 mps 543 mmHg 89%
    02:00 +10°C° 0 mm 0 mps 543 mmHg 88%
    03:00 +10°C° 0 mm 0 mps 543 mmHg 87%
    04:00 +10°C° 0 mm 0 mps 543 mmHg 87%
    05:00 +11°C° 0 mm 0 mps 544 mmHg 83%
    06:00 +12°C° 0 mm 0 mps 545 mmHg 80%
    07:00 +13°C° 0 mm 0 mps 545 mmHg 76%
    08:00 +16°C° 0 mm 1 mps 546 mmHg 66%
    09:00 +18°C° 0 mm 2 mps 548 mmHg 56%
    10:00 +20°C° 0 mm 2 mps 549 mmHg 45%
    11:00 +21°C° 0.1 mm 3 mps 548 mmHg 44%
    12:00 +22°C° 0.1 mm 3 mps 547 mmHg 42%
    13:00 +24°C° 0.1 mm 3 mps 547 mmHg 41%
    14:00 +22°C° 0.1 mm 3 mps 546 mmHg 43%
    15:00 +21°C° 0.1 mm 3 mps 546 mmHg 45%
    16:00 +21°C° 0.1 mm 3 mps 545 mmHg 47%
    17:00 +18°C° 0 mm 3 mps 544 mmHg 60%
    18:00 +15°C° 0 mm 2 mps 544 mmHg 72%
    19:00 +12°C° 0 mm 1 mps 543 mmHg 85%
    20:00 +12°C° 0 mm 1 mps 543 mmHg 86%
    21:00 +11°C° 0 mm 0 mps 543 mmHg 87%
    22:00 +10°C° 0 mm 0 mps 543 mmHg 88%
    23:00 +10°C° 0 mm 0 mps 543 mmHg 88%

    29 April, Monday

    Time Temperature Precipitation Wind Pressure Humidity
    00:00 +10°C° 0 mm 0 mps 543 mmHg 88%
    01:00 +12°C° 0 mm 1 mps 543 mmHg 87%
    02:00 +11°C° 0 mm 1 mps 543 mmHg 87%
    03:00 +11°C° 0 mm 1 mps 543 mmHg 87%
    04:00 +11°C° 0 mm 1 mps 543 mmHg 86%
    05:00 +11°C° 0 mm 0 mps 543 mmHg 83%
    06:00 +12°C° 0 mm 0 mps 544 mmHg 80%
    07:00 +12°C° 0 mm 0 mps 545 mmHg 77%
    08:00 +15°C° 0 mm 1 mps 546 mmHg 68%
    09:00 +18°C° 0 mm 1 mps 547 mmHg 58%
    10:00 +20°C° 0 mm 2 mps 548 mmHg 48%
    11:00 +21°C° 0 mm 2 mps 548 mmHg 45%
    12:00 +22°C° 0 mm 3 mps 547 mmHg 43%
    13:00 +22°C° 0 mm 3 mps 547 mmHg 41%
    14:00 +22°C° 0.1 mm 3 mps 546 mmHg 43%
    15:00 +21°C° 0.1 mm 3 mps 546 mmHg 46%
    16:00 +20°C° 0.1 mm 3 mps 545 mmHg 48%
    17:00 +18°C° 0 mm 3 mps 544 mmHg 60%
    18:00 +15°C° 0 mm 2 mps 544 mmHg 71%
    19:00 +12°C° 0 mm 1 mps 543 mmHg 82%
    20:00 +12°C° 0 mm 1 mps 543 mmHg 84%
    21:00 +12°C° 0 mm 1 mps 543 mmHg 86%
    22:00 +10°C° 0 mm 0 mps 543 mmHg 87%
    23:00 +10°C° 0 mm 0 mps 543 mmHg 87%
    Show more